STARLINK-11653, 63267

Orbit data source: Space-Track

STARLINK-11653, 63267 is a payload satellite owned by SpaceX/Seattle (US) in LEO that was launched on Sat, 15 Mar 2025 UTC via an FALCON 9 launch vehicle from the Air Force Eastern Test Range (AFETR). Payload-class satellites include a variety of spacecraft equipped with specific instruments for various scientific and technological missions. These include communications satellites like Starlink; space stations such as the ISS; scientific satellites like the Hubble; Earth observation satellites from companies like Planet Labs, Umbra, and HawkEye 360; GPS; miniature CubeSats for education and research; and military/defense satellites.

Loading next visibility...
Identifier
63267, 2025-053C
Orbit
LEO
Country
Flag of USUS
Related business
Manufacturer
SpaceX/Seattle
Mission
Operational Commercial Communications
Bus & Motor
STARLINK V2MD, Unknown motor
Mass
960 kg wet, ~910 kg dry
Launch date (UTC)
2025-03-15 (1 year ago)
Launch vehicle
FALCON 9
Launch site
Air Force Eastern Test Range (AFETR)
Object type
Payload
Rocket body
Debris
Shape & HBR
Box + 2 Pan, 18.1 m
Radar Cross Section
36.964 m², Large (>1 m²)

Expand to show TLE details & history
Last TLE update: 10 hours ago

TLE from 10 hours ago
0 STARLINK-11653
1 63267U 25053C   26171.42161486  .00146793  00000-0  11277-2 0  9998
2 63267  42.9996 213.2529 0001425 289.2009  70.8705 15.70834445 73829
Epoch: 2026-06-20T10:07Z
TLE epoch observation values (Epoch: 2026-06-20T10:07:07.523Z)
Latitude
0.00001°
Longitude
152.83509°
Altitude
355.968 km
Speed
7.698 km/s
True Right ascension
14h 13m 00s
True Declination
0° 00' 00"
Sunlit
Object was in full shadow at epoch
Visualization orbit readout
Latitude
Unknown
Longitude
Unknown
Altitude
Unknown
Speed
Unknown
Apparent Right ascension
Unknown
Apparent Declination
Unknown
Sunlit
N/A
Visualization observer readout
Local Sidereal Time
07:13:03
Azimuth
Unknown
Elevation
Unknown
Doppler factor
Unknown
Orbital elements
Apogee altitude
359.453 km
Perigee altitude
357.533 km
Semi-major axis
6,736.63 km
Eccentricity
0.00014
Inclination
42.9996°
RAAN
213.2529°
Arg. of periapsis
289.2009°
True anomaly
70.88593°
Mean anomaly
70.8705°
Eccentric anomaly
70.87821°
Mean motion
3.92536 °/min
Orbital period
91.71 mins
BSTAR
0.0011277
Loading maneuver chart data...
Computing Atmospheric mass density...
Loading historical data...
Loading historical data...
Loading historical data...
Loading historical data...
Loading historical data...
Loading historical data...
Loading historical data...

Documentation

Showing up to 5 results
|